Theta_e
321 317 313 310 307 303 309 307 297 298 298 292 291 294 293 302 304 298 298 301 300 304 306 306 305 309 307 307 308 309 310 307 306 298 297 312 327 332 332 334 334 334 334 336 337 339 341 343 344 342 343 342 341 343 342 341 340 340 340 339 339 338 338 338 337 337 338 338 338 339 339 340 339 339 339 338 340 338 338 338 337 336 334 335 335 333 332 332 333 333 332 332 331 331 331 331 330
317 315 313 311 306 311 305 305 293 294 292 288 291 295 297 299 298 297 296 299 300 303 302 302 302 305 308 310 310 315 314 318 318 314 319 325 327 329 334 334 333 332 335 337 337 339 340 341 344 343 342 342 342 342 342 342 341 340 340 339 338 338 338 337 337 337 337 337 337 338 339 338 338 338 338 338 337 338 337 337 337 335 334 334 333 333 333 332 332 332 331 330 330 329 329 330 328
318 314 309 308 308 308 304 303 294 288 288 286 289 294 298 296 296 297 299 300 302 303 302 303 304 306 305 309 307 308 302 323 323 322 319 322 323 325 331 335 333 333 335 337 337 338 339 339 343 343 342 341 341 342 342 342 342 341 340 339 339 339 338 337 337 338 337 337 337 337 337 337 338 337 337 338 337 337 336 336 336 336 333 332 333 332 332 332 331 331 330 330 329 328 329 329 328
313 314 307 306 303 303 295 294 289 286 286 283 288 293 296 296 297 298 300 301 301 302 303 303 301 308 306 303 307 315 313 316 322 321 317 321 324 327 331 334 335 333 335 337 336 336 337 340 342 343 342 341 342 342 341 340 341 341 340 340 339 339 338 337 337 337 337 337 337 337 337 336 337 336 337 336 336 336 336 336 335 334 332 332 331 331 331 331 331 329 329 329 328 328 327 327 326
306 315 306 305 302 299 297 291 290 288 287 286 287 292 296 296 297 298 298 298 299 301 300 301 300 303 305 307 315 305 307 317 321 326 324 326 329 329 332 334 334 332 333 336 336 335 335 341 340 342 342 342 342 342 340 339 339 338 338 340 339 339 338 338 336 336 336 336 337 338 337 336 336 335 335 336 336 335 335 335 335 333 332 331 331 331 330 330 330 330 329 329 328 327 327 326 324
303 304 310 306 300 303 296 292 289 288 291 289 290 292 295 295 294 294 294 293 299 300 300 301 300 301 301 305 316 310 315 312 319 324 326 327 330 331 333 334 334 332 333 336 336 335 335 340 340 341 342 342 342 341 340 339 339 338 338 339 339 338 337 337 337 336 336 336 335 336 336 335 335 334 335 335 335 335 335 335 334 333 331 330 331 331 330 329 330 329 330 329 328 327 326 325 325
302 304 303 298 299 298 290 287 286 286 288 291 291 292 293 291 292 293 292 294 301 298 300 302 300 300 296 307 313 316 319 321 322 323 328 328 331 331 332 333 333 332 333 335 335 335 336 340 340 341 342 341 341 341 341 340 340 339 339 339 338 337 337 337 337 337 337 336 335 335 335 335 336 334 333 335 334 335 334 333 333 332 331 330 329 329 330 330 330 329 328 328 327 326 325 325 325
310 302 301 292 290 291 288 285 286 287 287 292 292 291 292 292 292 292 290 291 292 294 295 300 300 298 295 308 303 312 317 320 323 326 328 329 330 331 331 332 332 332 333 334 335 335 339 340 340 341 342 341 341 340 340 339 339 338 338 338 338 337 338 337 338 338 338 337 336 336 334 334 335 334 334 335 335 334 334 334 333 332 330 329 330 330 329 329 329 328 327 327 326 325 324 324 324
301 303 297 291 288 289 286 288 287 288 287 291 293 294 302 291 291 290 291 291 293 294 293 298 297 294 295 299 305 311 312 317 326 330 328 327 328 329 331 331 332 331 333 334 335 335 336 339 339 340 341 340 340 340 339 339 339 339 338 338 338 337 338 337 337 337 337 337 337 336 334 334 334 334 334 335 335 333 334 333 333 331 330 330 330 328 328 328 328 327 327 326 325 324 323 322 323
299 298 290 288 290 288 282 284 288 288 287 289 290 292 292 291 292 292 292 292 293 294 295 296 296 296 296 295 300 309 309 315 321 325 326 326 328 328 329 330 331 331 332 333 334 334 336 339 338 339 340 340 339 340 339 339 338 339 338 337 338 338 337 336 336 336 337 336 336 335 335 334 334 334 334 335 334 333 334 333 332 331 330 329 329 328 328 328 327 326 326 326 325 324 323 323 323
293 292 293 289 283 284 284 282 282 286 291 292 291 292 291 292 294 291 293 293 294 293 293 295 296 293 295 295 303 307 313 316 318 318 321 324 326 327 328 329 331 332 332 333 333 334 335 338 338 338 338 338 340 340 340 339 338 338 338 337 338 337 337 337 337 337 336 335 335 334 335 334 334 335 335 334 333 334 334 332 331 330 329 329 329 327 326 325 326 326 326 326 325 323 322 323 323
291 290 292 283 282 283 282 282 283 285 287 290 292 293 292 293 293 293 292 292 292 290 292 295 293 295 293 293 293 309 311 314 312 314 316 319 325 326 327 328 329 331 332 332 333 334 335 336 337 338 336 336 337 338 339 339 339 338 337 337 337 337 337 336 337 336 336 335 335 334 335 334 334 335 334 333 331 331 332 332 331 330 329 327 327 326 326 325 325 325 325 324 324 323 321 323 322
291 289 284 283 280 284 283 283 282 287 286 288 290 294 292 292 292 291 291 290 291 291 291 295 297 296 291 292 297 308 311 313 314 314 316 318 325 325 325 326 328 330 332 332 332 332 334 335 335 336 335 335 335 335 336 337 339 338 337 337 336 336 336 336 337 335 335 334 334 334 334 334 333 333 333 333 331 331 331 329 330 330 328 326 326 326 325 325 324 324 323 324 323 322 321 322 321
291 292 288 284 282 283 284 283 282 285 283 286 291 293 293 292 290 291 291 290 290 290 293 296 295 293 291 293 292 304 306 310 311 314 316 318 323 323 325 325 326 328 330 331 331 332 333 334 334 335 335 335 334 334 335 334 336 337 336 336 336 337 336 336 335 334 334 335 334 333 333 333 333 333 333 332 331 331 330 329 329 329 328 326 325 325 324 324 324 323 323 322 322 321 321 321 320
294 293 285 284 283 282 283 286 284 283 282 287 293 292 293 296 292 291 291 290 290 292 295 298 295 293 287 291 288 300 308 308 309 311 315 311 322 322 323 325 326 325 328 329 330 331 332 333 333 333 334 335 334 333 334 333 333 334 334 335 336 336 335 334 334 334 333 332 333 334 333 333 332 331 331 330 330 330 329 329 328 328 328 326 325 325 324 323 323 323 322 322 321 320 319 320 319
295 290 287 287 282 283 283 285 285 284 284 288 293 292 292 293 293 294 294 293 293 295 295 294 297 293 292 291 293 299 308 308 309 308 307 310 319 320 321 323 324 325 328 329 329 330 331 332 332 332 333 334 333 333 333 333 332 332 332 333 334 333 333 332 331 331 331 331 332 332 332 330 330 329 331 329 329 328 329 326 327 327 327 327 325 323 323 323 322 322 322 321 320 319 318 318 318
293 289 287 281 282 282 283 285 284 283 283 287 293 293 291 291 293 294 298 294 294 293 294 293 295 298 294 294 296 302 309 309 309 306 306 308 316 317 319 321 322 322 327 327 328 329 330 330 331 331 332 333 333 332 332 333 332 331 331 331 331 331 330 329 328 328 328 329 328 327 328 328 327 326 327 325 328 325 325 325 326 326 326 326 325 324 323 322 322 321 320 319 318 318 317 317 317
291 288 283 283 283 283 284 285 284 285 286 288 291 291 290 288 290 293 293 293 292 293 293 294 295 296 297 298 305 306 306 306 306 304 303 303 310 318 321 323 325 324 325 327 328 330 330 330 330 330 331 332 332 331 331 332 332 331 331 331 331 329 328 328 328 328 326 328 325 326 326 325 325 324 323 324 322 322 323 324 324 325 326 325 324 323 321 321 321 320 319 320 320 317 314 304 308
291 285 285 283 282 285 286 288 286 287 287 286 289 290 290 289 290 291 290 287 289 290 291 293 293 296 297 298 303 303 305 304 304 303 302 302 305 317 320 322 324 324 324 327 328 329 329 330 330 328 330 331 331 329 330 331 331 330 330 330 329 327 327 326 328 326 327 326 324 324 323 323 323 321 321 322 321 322 322 323 323 323 324 324 323 322 320 320 320 319 319 318 316 313 303 300 298
289 286 282 282 285 286 287 288 290 290 289 289 290 290 290 290 291 294 290 288 289 289 290 290 291 293 294 297 301 301 303 303 303 303 302 301 302 311 316 320 322 324 324 325 328 328 329 329 329 329 329 330 328 327 329 329 328 329 329 328 327 327 327 326 327 326 326 324 324 323 322 321 321 320 319 319 319 321 321 321 322 322 322 322 322 321 320 320 319 318 316 314 310 304 299 297 297
291 286 284 284 285 288 288 292 291 292 291 291 288 289 289 289 291 294 291 288 288 290 293 292 291 292 293 297 299 301 300 301 301 302 303 302 302 303 308 315 320 324 324 323 324 326 328 329 329 329 330 330 328 327 327 328 328 328 328 327 327 326 326 326 326 325 324 324 323 321 320 319 319 318 318 319 320 318 317 316 315 314 315 316 315 310 309 310 306 302 298 299 297 300 298 296 296
289 289 287 286 288 287 288 291 291 290 290 290 288 288 289 292 292 291 291 288 287 286 288 294 294 295 294 295 298 299 300 300 300 301 301 302 303 303 303 302 307 317 324 323 323 323 326 328 328 329 330 329 328 327 327 327 327 327 326 326 326 325 325 325 324 324 323 322 321 320 319 318 317 317 317 318 317 316 314 313 312 311 311 311 310 307 306 305 302 297 295 295 294 295 294 293 295
288 287 287 288 288 288 290 292 291 291 290 290 289 290 292 290 289 290 291 291 293 294 293 292 294 296 296 297 297 298 299 299 300 300 300 301 301 302 303 303 303 305 311 320 323 322 323 325 326 328 329 329 327 327 327 326 327 327 327 326 325 324 325 324 323 323 322 321 320 319 318 317 316 316 316 316 315 314 312 312 311 310 309 308 308 306 304 303 300 295 293 293 292 293 292 293 294
289 287 286 289 289 289 290 292 291 289 290 288 289 292 290 289 288 289 289 294 296 295 293 294 294 296 296 295 296 298 299 299 300 300 301 301 301 302 303 303 303 302 304 313 317 320 321 323 324 325 327 329 328 327 326 325 326 327 326 324 324 323 324 323 322 322 321 320 319 319 318 317 316 315 315 315 314 313 311 311 310 308 307 306 306 304 301 298 296 294 293 292 292 292 292 291 292
289 288 288 290 292 292 291 291 290 289 289 289 291 291 292 290 289 290 292 294 294 294 295 295 295 295 295 295 296 297 297 297 298 299 300 301 301 302 302 302 302 301 302 307 313 317 319 322 324 324 325 325 326 328 327 326 326 326 325 324 324 322 323 323 322 321 320 319 318 318 317 316 315 315 314 314 314 312 310 309 308 307 306 304 304 301 298 295 294 293 293 292 291 291 291 291 290
289 291 291 291 291 292 292 292 292 292 292 291 292 292 291 291 291 290 294 295 295 294 293 294 293 294 295 296 297 297 297 297 298 298 300 301 302 301 301 301 302 301 302 302 303 310 317 320 323 325 325 325 325 326 327 326 326 326 325 324 325 322 323 322 321 320 319 318 317 317 317 316 316 314 314 313 312 310 309 308 307 305 303 303 302 298 296 294 293 292 291 291 291 290 291 292 290
291 289 290 291 293 292 291 291 289 290 291 291 291 290 289 290 289 286 290 294 294 294 293 292 292 293 294 296 297 297 297 297 298 299 298 298 299 300 301 301 301 302 302 302 302 302 310 316 320 323 324 323 323 323 325 325 326 325 324 324 324 323 323 322 321 320 319 318 317 317 316 316 315 315 314 313 312 310 309 307 305 303 301 301 300 297 295 294 293 292 292 291 290 290 290 290 289
293 292 290 290 289 289 289 288 289 290 291 290 291 291 290 289 288 288 293 293 293 294 292 292 292 294 295 296 296 298 297 298 298 297 298 298 299 299 300 301 301 301 302 303 303 302 302 311 319 321 322 322 322 323 323 324 324 325 325 324 324 323 323 322 320 319 317 317 317 316 316 315 314 314 313 313 312 310 308 306 303 301 299 298 298 296 294 293 292 291 290 290 290 290 289 288 289
292 290 289 287 288 290 289 288 289 291 290 290 291 289 287 287 287 293 295 294 294 292 293 293 293 294 295 295 296 297 298 298 298 297 298 299 299 300 300 302 302 302 303 304 304 303 302 305 315 319 322 322 322 322 324 323 323 325 324 324 323 322 322 321 320 319 318 317 316 316 315 315 314 313 313 313 311 310 308 305 303 301 298 297 296 295 293 292 291 290 290 290 289 289 288 288 290
292 289 285 288 286 285 289 290 289 291 291 290 289 282 282 285 291 293 294 292 292 291 292 293 294 294 295 295 295 296 297 297 297 298 299 299 300 300 300 302 302 302 302 301 302 303 304 305 312 318 321 323 322 322 322 322 323 323 322 324 322 322 322 321 320 319 318 317 316 316 315 314 314 314 313 312 312 309 307 305 303 299 297 296 295 294 293 292 291 290 289 289 291 289 288 288 288
287 287 288 284 282 280 287 289 289 290 291 290 289 282 286 287 288 291 292 292 291 291 292 293 293 294 294 294 295 295 296 297 298 299 300 300 300 300 301 301 302 302 301 301 301 303 304 305 311 316 319 323 323 322 321 320 320 322 322 322 322 322 322 321 320 319 317 316 316 316 315 314 313 313 313 312 311 309 306 304 302 299 297 295 294 294 293 292 291 289 289 288 288 287 287 289 288
286 284 281 278 281 281 284 290 289 289 291 288 288 282 285 288 289 291 291 290 291 291 292 293 293 293 294 294 294 295 296 297 297 298 299 299 300 300 301 301 301 301 301 302 302 302 302 305 312 315 318 323 323 323 322 321 320 320 321 319 321 321 321 321 320 319 317 317 316 315 314 313 313 312 312 312 310 308 306 304 301 298 297 296 295 294 293 291 290 290 289 289 287 287 288 287 288
280 283 280 279 280 281 283 287 288 289 289 290 287 284 286 288 287 290 293 291 292 292 292 292 292 292 293 293 294 294 295 295 295 296 297 298 299 300 300 301 301 301 301 301 302 301 301 303 313 315 318 322 322 323 323 322 320 319 319 318 319 320 321 321 320 319 317 316 315 315 314 313 313 312 312 311 309 308 306 303 300 298 297 296 294 293 293 292 291 290 289 290 289 287 287 287 287
279 280 281 280 280 281 281 283 287 287 288 285 286 283 286 289 289 291 289 293 291 292 293 293 293 293 293 294 293 294 294 294 295 296 297 298 299 300 301 303 302 302 301 302 302 303 302 302 310 315 318 321 322 322 322 322 321 319 319 320 318 320 320 320 320 318 317 316 315 315 314 313 312 311 311 311 309 308 306 302 299 297 297 295 294 294 293 292 292 291 289 289 289 288 287 287 286
278 280 279 282 279 280 283 282 284 288 288 286 284 284 286 288 290 292 293 292 291 291 292 292 292 292 293 293 294 294 294 294 295 297 298 299 299 300 301 301 301 301 302 301 301 301 301 301 304 312 315 317 320 321 321 321 320 319 318 317 317 318 318 320 320 318 317 316 315 314 313 312 311 311 310 310 308 306 304 301 298 297 297 295 294 293 292 292 292 291 290 289 290 289 288 287 287
285 283 282 280 281 282 279 283 284 288 285 284 284 285 287 289 290 292 293 290 290 290 290 290 289 289 290 290 291 292 294 294 296 296 297 297 298 299 300 299 299 299 300 301 301 300 301 300 300 301 307 314 317 319 319 319 318 317 315 314 314 315 316 316 317 317 317 315 315 314 313 312 311 311 310 309 308 305 302 300 298 297 296 295 294 293 292 292 291 290 290 290 289 290 289 289 289
283 281 282 282 280 282 283 283 284 286 285 284 286 286 286 287 289 290 291 290 288 288 287 288 288 288 289 289 290 292 293 294 295 295 296 296 297 299 300 300 300 300 300 300 300 299 300 301 300 300 301 304 312 315 315 316 315 314 315 314 313 314 313 313 315 316 316 315 314 314 312 312 311 311 310 309 306 304 301 299 298 297 297 296 295 293 293 292 292 291 291 291 289 288 288 289 289
284 282 280 280 280 280 284 285 286 286 285 280 281 283 285 287 289 289 291 289 288 289 288 288 288 288 288 289 290 291 292 292 292 292 293 294 295 295 296 296 299 299 298 298 299 300 300 299 299 300 300 299 307 314 315 316 316 316 315 314 313 312 311 310 311 313 315 314 313 313 312 311 311 310 309 308 306 303 300 299 298 297 297 296 295 294 293 293 292 291 291 290 290 289 288 289 289
282 283 279 280 281 281 283 284 285 286 284 282 281 282 285 287 288 289 289 289 289 289 288 289 288 288 288 289 290 290 290 290 290 291 292 293 294 295 295 294 295 296 295 296 296 297 297 298 299 300 301 300 301 309 312 314 316 316 315 313 313 309 309 311 312 313 313 313 313 312 311 311 311 310 309 307 305 303 301 299 298 298 297 297 295 293 292 292 292 291 291 290 289 289 289 290 289
282 281 279 280 280 281 280 281 282 285 285 281 281 282 284 287 288 287 288 286 287 287 289 289 289 288 288 289 291 291 290 290 290 289 291 292 293 293 294 295 295 295 296 295 295 296 297 299 298 298 299 300 300 303 310 312 314 316 316 312 311 311 309 307 308 309 311 312 311 311 311 311 310 309 309 307 305 303 301 300 299 298 297 297 295 293 292 291 292 292 291 291 290 288 288 288 289
281 282 281 281 280 280 281 280 281 283 281 284 282 280 282 282 282 283 284 285 288 288 288 288 288 289 289 290 290 290 290 290 289 288 290 291 292 292 293 294 293 294 294 295 296 297 299 298 298 298 299 299 300 301 305 309 311 312 312 308 308 306 306 306 306 307 309 309 310 310 310 310 310 309 308 306 304 303 302 301 299 299 298 297 296 294 292 292 292 292 292 291 290 289 288 287 288
279 280 283 284 281 281 281 280 281 278 276 281 281 278 275 279 280 281 285 284 286 286 287 288 289 289 290 289 289 289 289 288 289 290 291 291 291 291 291 291 292 293 294 295 296 297 297 298 298 298 299 300 300 300 302 307 310 311 308 305 303 306 304 305 305 305 306 307 308 310 310 310 309 308 307 306 305 303 302 301 300 299 298 297 296 295 294 292 292 292 292 292 290 290 289 288 287
281 282 283 283 281 281 280 280 279 272 273 279 282 275 276 281 284 285 284 283 284 285 285 288 287 288 288 289 288 288 289 289 290 290 290 290 290 289 290 291 292 292 294 295 295 296 296 297 297 298 299 300 302 302 303 306 309 311 308 307 307 306 306 306 308 307 307 308 309 308 308 309 308 307 306 305 304 303 302 301 300 299 298 297 297 295 294 293 292 292 293 292 291 291 290 288 287
279 282 282 282 282 281 279 278 278 276 278 281 280 278 273 277 284 283 282 281 284 284 285 287 288 287 288 288 288 287 289 289 290 290 290 289 289 290 291 292 292 294 295 295 295 296 296 297 297 298 299 300 302 304 304 306 308 309 308 308 308 307 307 307 307 306 307 308 307 307 307 307 307 306 305 304 304 303 302 301 300 299 298 297 296 295 294 293 293 293 293 293 292 291 290 288 287
280 282 281 282 281 280 279 277 276 276 276 278 276 278 275 274 280 283 282 283 284 283 285 287 288 288 287 288 287 288 289 290 290 289 289 289 290 290 291 292 294 295 296 296 297 297 297 297 298 298 299 300 301 303 305 305 307 308 308 308 307 308 308 306 306 306 306 306 306 305 306 305 305 305 305 304 303 303 301 301 300 299 298 297 296 296 294 294 293 292 292 292 292 291 290 289 288
285 283 284 282 281 280 279 276 277 274 273 277 274 277 273 276 279 280 279 282 282 284 285 287 288 288 287 287 286 287 288 288 288 289 289 289 289 290 292 293 294 295 296 297 298 298 298 298 298 298 298 300 301 302 304 305 306 306 304 307 307 307 306 305 305 304 305 305 304 303 304 304 304 303 303 303 302 302 301 300 299 299 298 297 296 295 294 294 293 293 293 293 293 291 290 291 290
286 283 282 280 279 279 277 275 273 272 271 276 276 277 275 274 280 281 281 282 283 283 282 282 284 286 287 287 287 288 289 288 288 289 289 289 290 291 292 293 295 296 295 297 298 298 298 298 298 298 299 300 301 302 303 304 305 306 306 307 307 305 304 304 303 303 303 304 302 302 302 303 303 302 302 302 301 301 300 300 299 298 298 297 296 295 294 294 294 294 294 293 292 292 291 291 291
282 279 277 278 276 274 273 268 269 271 270 272 276 277 277 272 278 279 282 283 282 284 283 285 286 287 288 287 286 288 288 288 289 288 289 290 291 291 291 293 295 296 297 298 298 297 297 299 299 299 300 301 301 302 303 304 306 307 307 308 307 306 304 303 303 303 303 302 302 301 302 301 301 301 301 300 300 300 299 299 298 297 297 296 295 295 295 295 294 294 293 293 293 293 292 291 291
281 279 279 275 272 270 271 270 271 270 273 274 272 275 276 276 282 284 284 284 283 282 285 286 287 287 287 286 286 288 288 288 288 288 288 289 289 289 292 295 296 297 299 300 299 298 297 297 299 301 301 302 302 303 304 305 305 305 305 305 307 306 305 304 303 303 303 302 302 301 300 299 299 299 299 299 298 299 299 297 297 296 296 296 295 295 295 294 294 294 293 293 293 292 292 292 291
280 279 276 273 271 270 268 267 266 269 273 273 273 277 275 280 282 286 287 289 289 287 285 285 288 288 287 286 286 287 288 288 288 289 288 289 289 290 294 296 297 299 300 300 300 300 299 297 297 298 300 301 301 302 303 304 304 304 305 306 307 305 304 305 304 303 303 303 302 301 300 300 299 299 298 298 298 298 298 298 297 296 296 295 295 295 294 294 294 293 293 293 292 293 293 292 291
282 280 282 279 273 268 268 267 272 273 271 273 272 273 275 275 282 283 286 288 285 284 286 285 286 288 287 285 285 286 286 286 286 289 290 290 290 292 295 296 297 299 300 301 300 300 300 299 298 298 299 301 301 302 303 304 304 305 305 306 305 305 305 304 304 303 303 302 302 301 301 300 300 299 299 298 298 298 297 297 297 296 295 295 295 294 294 294 294 293 293 293 292 292 292 292 291
281 280 280 276 279 276 276 269 268 268 269 272 269 276 279 283 284 286 287 286 286 285 285 286 286 284 283 284 285 287 287 288 288 290 290 290 290 293 295 297 299 300 301 301 300 300 300 301 300 300 301 302 303 303 304 304 304 305 305 304 304 304 303 303 302 302 303 302 301 301 300 300 300 299 298 297 297 297 297 296 296 296 295 295 295 294 294 293 293 293 292 292 291 292 291 291 290
281 280 277 279 280 277 270 273 272 270 268 271 269 276 281 285 287 285 281 283 285 285 285 285 285 283 283 285 285 286 287 287 289 290 290 290 290 294 297 298 299 300 300 300 300 299 298 299 300 301 301 302 302 302 303 304 304 304 304 303 303 303 302 301 301 301 301 301 301 301 300 299 299 298 297 297 296 297 297 296 296 295 295 295 294 294 293 293 292 292 292 291 291 291 291 290 290
280 276 280 282 281 276 276 273 267 267 268 271 272 276 280 280 282 283 282 281 283 284 285 285 284 282 283 285 284 286 287 288 290 291 290 291 291 295 298 299 299 299 299 299 299 298 296 297 301 300 300 300 301 302 302 303 302 302 302 302 302 302 302 301 301 300 300 300 300 299 299 297 297 297 296 296 296 296 296 295 295 295 295 294 294 293 293 293 292 291 291 291 291 291 291 290 290
281 279 283 282 276 276 273 271 270 267 267 267 268 272 275 280 283 282 284 282 283 284 284 283 283 282 283 284 283 285 286 287 289 290 290 291 291 294 296 298 299 299 299 299 299 298 298 298 300 301 300 301 301 302 302 302 302 302 302 302 302 301 301 301 301 300 300 299 298 298 297 297 297 296 296 295 295 295 295 295 295 295 294 294 294 293 293 293 292 291 291 291 291 291 290 290 289
283 283 281 279 278 273 273 276 270 271 269 266 270 270 277 283 283 283 286 284 285 284 283 283 285 284 284 285 284 284 286 288 290 290 290 291 292 294 296 297 298 298 298 297 298 298 298 298 299 299 300 300 300 301 301 301 301 301 301 301 301 301 301 300 300 299 299 298 298 297 297 296 296 296 296 296 295 294 294 294 294 294 294 294 293 293 293 292 292 292 291 290 290 290 290 289 288
280 279 277 277 276 278 276 274 274 273 268 266 266 271 275 284 286 284 286 285 285 284 284 285 285 284 284 285 284 285 287 289 290 291 291 291 293 295 297 297 298 298 297 296 297 298 298 298 298 299 299 299 299 299 300 301 301 300 300 300 300 300 299 299 299 299 298 298 297 297 297 296 296 295 295 295 295 294 294 294 293 293 293 293 293 293 293 292 292 291 291 290 290 290 289 289 288
281 281 279 282 277 275 273 275 274 268 271 272 266 275 277 286 287 288 288 287 285 284 285 285 285 285 284 284 283 285 287 288 290 291 291 291 292 295 297 298 298 298 298 297 297 297 298 298 298 299 299 299 299 299 300 300 300 300 300 299 299 299 299 299 298 298 297 297 297 297 296 296 295 295 295 295 294 294 294 294 293 293 293 293 292 292 292 292 291 290 290 290 289 289 289 288 288
Wind_Speed
6 5 4 3 1 2 1 2 0 2 2 3 2 1 1 1 1 2 1 1 0 2 1 1 1 1 1 1 2 3 1 3 4 5 3 1 1 1 5 4 8 10 11 9 9 8 10 16 17 17 18 18 18 19 18 17 17 18 18 18 18 17 15 14 13 13 15 14 14 15 15 15 17 19 18 18 18 19 18 18 17 16 15 20 17 17 16 14 14 14 14 13 13 14 15 16 15
4 4 4 1 0 1 1 2 1 1 3 2 4 1 1 3 3 2 2 2 2 1 1 1 1 1 0 4 2 5 1 0 2 2 2 3 2 0 1 5 10 13 10 10 9 8 9 11 18 17 18 18 18 19 20 19 18 17 18 18 18 18 15 15 14 14 15 15 14 15 15 15 16 18 19 18 18 18 18 18 17 18 16 17 17 18 16 15 15 14 15 14 15 16 16 17 15
3 4 4 2 3 2 0 2 1 0 1 1 3 1 3 1 2 3 3 4 3 2 1 2 1 2 2 2 1 3 4 1 2 2 1 2 4 3 2 5 9 11 12 9 9 9 8 10 15 16 17 18 19 18 19 20 20 19 19 19 19 19 17 16 16 16 15 17 15 14 16 14 13 17 18 18 17 18 17 18 18 18 17 18 20 18 16 15 15 15 15 14 15 16 17 17 15
1 0 1 1 1 3 1 2 2 4 1 3 1 2 1 2 3 4 4 4 3 1 0 2 1 1 1 1 1 3 1 2 3 3 1 3 5 3 3 6 6 6 8 8 9 9 9 11 16 17 16 19 19 19 18 19 21 21 21 19 19 19 19 18 16 16 17 17 17 16 15 16 13 17 16 17 16 17 18 18 18 18 18 19 19 18 16 16 15 15 15 14 14 16 17 16 16
2 0 1 3 4 1 1 1 1 2 1 3 2 3 2 2 2 3 2 3 4 1 1 1 0 2 0 1 0 1 4 0 2 2 0 1 1 2 4 5 6 6 8 8 8 9 9 15 16 17 16 18 18 19 19 18 17 17 19 21 19 18 18 16 16 15 16 16 19 18 17 15 15 15 16 16 15 15 17 18 18 18 20 19 20 19 16 15 15 16 15 15 15 17 17 15 14
2 4 2 1 0 2 4 1 2 2 7 3 2 3 3 4 3 2 2 3 3 2 1 2 1 1 1 1 2 1 2 2 1 1 2 3 2 3 5 5 7 7 7 7 7 7 7 15 15 16 16 18 19 19 19 19 18 17 17 18 18 18 17 17 17 16 14 14 16 17 17 16 15 13 16 15 15 16 17 18 19 18 19 18 19 19 16 16 16 16 16 15 16 17 17 16 15
2 3 2 3 2 3 3 2 4 3 5 5 3 3 5 4 3 0 2 1 1 1 1 1 1 2 1 1 1 2 2 1 0 2 4 1 2 5 6 6 8 9 8 8 7 7 8 15 15 15 17 20 21 21 20 19 18 17 17 17 16 16 17 18 19 17 15 15 15 16 17 17 17 14 14 17 16 17 19 17 19 19 20 21 19 19 16 16 16 16 15 15 16 16 17 16 14
0 2 1 2 1 2 0 2 4 5 2 3 2 4 5 3 1 1 1 1 2 0 2 1 0 2 4 2 2 1 3 2 2 0 1 2 3 4 6 7 8 9 9 8 8 7 10 16 15 15 17 20 20 20 20 19 18 18 17 17 18 17 17 18 20 19 16 17 16 16 16 17 17 17 15 18 17 17 19 19 18 18 19 19 19 18 16 16 16 16 15 15 15 16 16 15 16
2 1 1 4 1 1 1 4 4 2 3 1 1 4 4 3 3 2 0 1 2 1 1 1 1 2 2 1 2 2 3 2 1 1 3 3 3 3 4 5 8 7 9 8 8 8 8 15 15 15 16 17 20 20 19 19 19 18 17 18 19 19 17 18 19 20 19 18 17 17 17 17 17 16 16 17 16 17 19 18 18 19 19 21 21 17 17 16 15 15 16 15 15 16 15 14 14
1 2 1 1 1 1 3 7 1 3 4 3 4 2 3 3 1 1 1 3 2 1 2 2 1 3 2 3 2 2 2 2 1 1 1 3 4 4 4 6 6 8 9 9 8 8 8 14 17 15 15 16 20 19 19 18 18 19 18 19 19 19 19 19 19 19 20 20 19 19 17 17 17 16 16 18 17 17 19 19 18 19 18 20 20 17 16 17 16 16 15 15 15 15 14 15 14
0 3 1 1 1 0 3 6 4 2 1 0 2 4 6 2 1 0 1 2 1 0 5 1 2 4 1 3 4 2 3 1 2 3 2 3 3 4 4 4 5 8 9 10 9 8 8 10 17 17 14 17 16 15 18 19 19 20 19 20 20 20 20 20 20 19 20 20 20 19 18 18 18 18 16 18 16 17 19 19 17 19 19 20 19 18 16 15 16 15 15 16 15 15 15 14 13
1 1 1 1 2 5 4 3 3 5 3 1 3 3 2 1 1 0 1 1 1 2 3 1 1 1 1 1 2 1 2 1 3 3 3 2 3 3 3 3 3 4 7 8 9 9 9 9 10 14 17 17 15 14 15 17 19 20 19 20 21 21 20 20 20 19 19 19 20 19 20 19 19 19 18 18 19 18 19 19 19 18 20 19 18 18 16 15 16 15 15 15 15 15 15 14 13
3 1 4 2 3 1 2 1 5 2 1 4 4 2 1 1 2 4 2 2 0 1 6 4 0 1 3 2 2 3 1 5 4 3 2 2 4 3 2 2 3 4 5 6 8 9 10 9 10 10 13 15 17 14 15 16 17 18 19 20 20 20 21 21 20 19 18 19 19 19 18 19 19 19 20 19 20 18 19 19 19 19 20 18 18 18 17 16 16 15 15 14 14 14 15 14 13
3 2 4 2 0 1 1 4 0 2 5 3 2 1 1 1 3 5 4 2 6 2 3 4 0 2 4 1 3 2 6 5 5 4 2 1 3 3 4 3 2 3 4 5 7 9 10 11 10 10 11 10 11 13 15 16 15 16 16 19 19 18 18 18 19 21 19 18 18 18 18 18 16 17 16 18 19 16 18 18 19 20 20 20 19 18 16 16 15 15 15 14 14 14 14 14 13
1 2 3 1 2 1 3 3 4 5 6 3 2 2 1 3 2 2 5 4 9 4 1 0 3 3 5 6 5 6 7 6 5 3 1 0 2 3 4 4 5 3 3 4 5 8 9 10 11 10 10 8 9 8 8 14 16 16 14 15 17 18 17 16 16 17 16 16 17 17 17 14 13 15 15 14 18 17 16 19 18 20 21 20 20 18 17 16 16 15 15 14 15 14 14 15 12
2 4 2 1 2 1 5 2 0 0 6 4 3 2 1 3 1 1 3 4 3 2 1 4 1 4 2 4 3 5 8 6 5 1 1 0 1 2 3 4 4 5 5 7 5 5 8 10 9 9 10 10 8 7 9 12 15 16 14 15 14 15 16 16 16 15 16 18 16 16 15 13 13 11 17 13 17 18 15 13 17 17 19 20 18 19 17 15 16 15 15 15 15 15 14 14 12
2 4 0 2 4 4 4 3 3 4 2 2 2 0 2 1 1 2 1 1 3 5 2 3 4 0 4 4 3 3 6 4 2 2 2 1 1 2 1 2 3 3 4 6 7 8 6 9 11 10 10 11 9 9 9 10 12 16 14 16 15 14 15 17 17 17 15 15 14 15 13 9 9 9 12 10 15 13 13 14 15 16 18 19 19 19 18 16 15 15 14 14 15 15 15 13 13
2 1 3 2 4 3 4 4 5 1 1 1 2 1 2 3 3 3 5 5 3 4 6 5 5 6 5 3 0 3 3 5 4 4 4 4 3 4 4 4 4 6 6 5 6 7 9 8 8 10 9 11 11 9 8 9 9 13 11 11 11 12 13 14 14 13 12 10 14 14 10 9 8 9 9 11 8 12 14 14 15 15 17 19 18 19 18 17 16 14 14 12 14 14 13 7 6
2 1 2 7 5 6 4 2 3 2 4 2 2 0 2 5 1 2 1 4 2 6 6 2 7 9 8 4 3 5 4 4 4 5 5 6 6 8 8 5 6 5 6 6 6 7 8 8 8 7 8 9 9 8 7 8 11 9 10 10 9 11 11 11 10 12 11 11 10 10 9 9 9 9 8 9 9 13 14 16 16 15 17 18 16 17 17 18 15 15 14 14 13 13 7 6 5
3 3 4 6 6 4 3 3 3 3 1 2 2 1 1 2 0 0 2 7 3 9 9 1 6 11 6 3 3 3 4 5 5 6 6 6 6 8 7 8 7 7 7 7 7 7 8 8 9 11 12 9 7 4 6 8 7 8 8 9 8 9 10 9 9 9 10 12 12 9 9 10 10 9 10 15 13 9 12 18 18 17 18 17 18 13 16 17 17 17 15 13 8 5 6 5 5
2 2 4 4 3 0 2 3 4 3 2 1 3 1 3 5 4 1 1 6 9 12 10 10 10 10 6 3 4 3 4 5 5 5 6 6 6 6 8 9 9 8 7 5 4 6 7 9 9 11 12 9 10 9 8 8 8 8 8 9 8 8 9 9 8 9 9 11 12 10 10 9 9 9 9 9 8 7 6 8 9 7 7 9 10 7 6 8 10 7 7 6 4 5 5 3 4
3 8 4 4 0 1 6 5 5 4 3 1 1 2 5 0 1 3 3 7 12 6 6 10 11 9 7 5 6 4 6 8 7 7 7 8 9 8 5 4 4 4 5 6 7 6 7 8 9 9 9 9 11 9 8 9 9 9 9 9 9 8 10 9 9 9 9 11 10 10 11 10 10 9 9 9 8 8 8 8 9 8 9 9 8 8 7 8 8 7 6 5 3 4 4 3 3
4 4 5 5 4 4 1 2 5 4 1 3 2 4 0 1 4 4 6 14 13 3 2 8 9 9 10 5 4 5 8 9 9 9 8 8 7 6 7 6 6 6 6 7 7 6 6 6 7 7 10 9 10 10 9 8 9 9 9 10 11 9 10 10 9 9 10 11 11 11 11 11 10 10 10 10 10 8 9 9 9 9 10 10 9 9 7 7 8 7 6 5 3 4 3 3 4
2 6 0 4 3 6 3 2 4 5 7 5 4 1 3 1 8 0 5 16 18 10 4 3 3 2 2 3 5 8 9 10 10 9 9 9 9 9 8 7 7 4 4 7 6 6 6 8 7 8 8 9 10 10 11 9 9 10 11 11 10 11 11 11 10 9 9 10 11 11 11 11 11 11 11 11 10 9 10 9 9 9 9 9 9 9 8 6 8 7 6 5 5 3 4 3 4
4 6 3 4 1 4 3 3 2 4 6 4 0 4 9 4 5 4 14 18 12 12 7 9 7 7 7 8 9 9 8 7 7 8 5 5 6 6 5 5 4 3 5 6 6 5 7 7 9 9 8 9 6 12 12 10 9 9 8 10 10 10 10 10 10 10 9 9 10 11 11 11 10 11 11 11 10 9 10 10 10 9 9 9 9 8 9 8 7 8 7 6 6 4 5 4 4
6 8 0 3 4 4 5 5 8 7 4 4 1 11 6 5 3 9 23 21 12 5 6 8 6 7 10 11 10 8 8 9 8 6 9 8 6 6 8 6 5 5 8 6 5 6 5 5 7 10 11 9 7 6 8 10 11 11 10 11 11 12 11 11 11 9 10 10 10 10 11 12 13 12 11 10 11 10 10 10 9 9 10 10 10 9 7 8 8 7 6 6 7 5 5 4 5
3 2 3 5 8 6 5 7 5 4 4 4 5 8 4 1 3 10 6 13 2 1 5 4 5 9 10 9 9 8 8 10 10 8 4 4 6 7 9 6 6 8 5 7 6 7 6 4 6 8 9 10 6 7 7 9 11 11 12 12 11 12 12 13 12 12 11 11 11 11 11 10 11 12 12 11 9 11 10 10 9 9 9 9 10 10 7 8 7 8 8 7 7 6 5 4 5
1 1 5 8 6 5 8 6 8 1 4 6 5 8 4 1 1 13 20 3 2 1 5 5 5 7 8 9 9 8 7 9 7 5 8 8 8 7 8 8 8 7 6 8 7 6 5 6 6 7 9 9 9 9 9 9 10 12 13 13 12 12 11 12 12 12 12 11 12 12 12 10 10 10 13 13 12 10 10 10 10 10 9 8 9 10 9 7 7 6 6 6 6 6 6 4 4
0 2 6 6 6 8 3 4 2 6 4 4 5 4 6 4 9 22 18 1 2 4 7 7 6 7 7 7 7 6 9 9 6 5 9 10 7 7 9 9 9 8 7 8 8 6 7 6 6 7 8 9 9 9 9 8 6 10 13 12 11 11 10 9 10 11 12 12 12 12 11 11 10 11 11 13 13 11 11 10 9 9 9 9 8 10 11 8 7 7 6 6 6 6 6 4 4
0 1 1 10 5 7 3 1 1 5 2 6 3 8 5 11 20 18 8 2 1 5 7 8 7 7 7 7 7 8 7 6 7 9 9 8 7 7 9 9 8 8 7 6 5 6 7 5 6 6 8 10 11 9 8 7 9 7 4 10 11 13 12 12 12 11 10 11 11 12 12 11 11 10 12 11 11 11 11 11 11 8 8 10 9 9 9 8 8 8 7 7 6 7 6 5 6
2 1 1 4 6 5 2 1 3 4 1 5 0 4 15 7 10 11 9 4 5 7 9 8 8 7 7 7 7 9 10 8 11 11 10 9 8 7 9 8 7 7 5 4 6 9 7 7 6 6 8 10 10 10 9 8 7 8 8 6 10 15 13 13 13 12 12 12 11 11 12 11 11 11 11 12 11 11 11 10 10 10 9 9 9 8 9 8 8 9 8 8 6 6 6 5 5
0 2 5 3 4 7 5 2 6 4 0 2 3 7 15 15 11 8 6 3 5 8 10 9 8 8 9 8 9 9 11 9 9 9 9 10 9 8 8 9 7 6 8 7 7 6 6 6 6 7 8 10 10 10 10 10 9 9 7 7 7 11 14 13 14 14 12 11 12 12 12 12 12 12 11 12 11 11 11 10 9 9 10 9 9 8 9 9 7 7 7 9 8 6 6 4 4
2 3 5 3 2 6 9 0 2 1 3 1 6 9 10 14 5 4 0 5 5 9 11 9 9 9 9 9 9 9 9 9 8 9 10 9 8 8 8 8 8 9 8 7 7 6 6 6 6 7 9 10 10 11 11 9 8 8 8 7 9 5 8 13 13 12 12 13 13 13 13 13 12 12 12 11 11 11 10 9 9 10 9 9 9 8 8 8 9 8 6 6 8 7 7 6 4
4 0 5 4 4 3 4 4 1 1 3 3 4 5 15 16 11 8 2 3 4 7 12 11 9 9 10 10 10 10 9 9 10 10 11 10 9 9 9 9 9 9 8 8 8 9 10 8 7 7 8 9 9 9 9 9 9 8 7 7 8 10 9 9 12 12 12 12 12 13 15 14 12 13 12 11 10 11 11 11 10 11 10 9 9 8 8 7 8 10 8 5 6 8 7 7 6
3 3 4 8 3 6 10 4 1 2 1 6 3 9 21 21 18 17 15 7 10 16 16 15 14 11 11 10 10 11 10 10 13 10 10 10 10 8 8 9 8 7 7 8 8 7 6 5 5 6 8 8 8 8 8 8 7 7 5 6 7 8 7 9 13 13 14 13 12 13 15 14 14 14 13 12 11 10 10 10 11 11 10 10 9 9 8 8 8 8 11 7 4 6 8 7 7
6 6 6 4 6 6 6 6 2 5 4 6 7 12 18 19 16 17 15 5 10 16 13 11 12 10 9 9 9 9 10 12 11 6 5 4 5 6 5 5 4 3 4 4 5 5 6 5 5 5 5 6 6 6 6 6 6 6 6 4 5 8 8 8 7 14 15 14 15 14 14 13 14 14 14 12 12 11 11 11 12 11 10 10 10 10 9 9 10 9 9 11 8 4 3 6 6
1 2 2 7 5 11 2 2 2 3 1 9 11 14 17 20 19 19 21 6 9 12 12 12 10 9 10 10 9 10 10 12 3 3 2 4 5 5 5 5 4 3 3 3 3 4 4 5 4 8 7 5 5 6 6 6 7 6 5 7 8 7 7 6 7 9 11 12 15 14 13 11 12 13 13 13 12 11 11 11 12 11 11 11 11 11 10 9 9 9 8 7 11 8 3 4 5
4 4 4 8 4 10 4 0 1 2 2 4 1 9 19 20 19 19 19 9 16 14 13 13 12 10 9 9 10 10 8 0 3 4 3 4 4 4 4 4 5 5 3 3 4 4 4 4 5 6 4 4 6 8 8 8 7 8 8 8 6 6 7 7 8 7 13 16 16 17 16 16 15 13 12 12 14 13 11 10 11 12 11 10 10 9 10 10 10 8 9 7 4 10 6 6 7
1 5 3 3 9 6 10 1 1 0 1 8 4 9 20 21 17 20 16 12 13 8 7 10 8 8 8 8 8 7 3 4 4 4 1 2 3 3 3 4 4 4 4 3 3 2 3 4 4 5 6 5 6 6 8 8 7 7 7 6 8 3 4 6 7 9 5 10 17 15 14 14 15 14 14 13 12 12 13 13 12 11 11 10 9 10 10 10 10 11 11 10 7 2 4 4 8
6 2 2 10 3 1 8 2 2 1 3 4 4 11 18 18 14 14 13 6 6 5 6 8 6 8 8 9 9 8 6 6 8 6 5 2 1 0 0 0 1 0 1 2 3 4 4 5 4 4 5 5 6 6 6 8 9 9 8 6 7 8 6 3 5 3 9 8 14 15 15 15 13 13 14 13 12 13 13 13 11 10 11 10 11 11 10 11 10 10 9 9 10 8 4 5 6
4 6 6 6 4 4 7 5 3 2 2 1 5 8 12 6 7 6 2 2 2 4 3 4 5 7 4 1 3 5 8 8 8 4 2 2 3 3 4 4 2 3 4 4 5 5 5 7 7 7 7 6 5 6 7 5 5 5 6 4 5 4 2 5 5 6 8 9 10 15 15 16 17 15 13 14 14 14 13 12 12 11 11 10 9 10 10 10 11 10 11 10 11 10 8 4 5
3 8 12 9 3 4 0 3 6 8 5 1 5 9 6 4 5 9 11 7 8 3 3 5 6 5 3 4 3 1 4 6 8 6 5 4 3 3 3 3 4 5 5 6 7 7 7 8 8 8 6 6 6 6 7 5 6 8 7 7 7 7 8 8 11 12 11 12 11 14 15 15 16 15 14 14 13 13 13 12 12 11 10 9 9 9 9 9 9 10 10 10 9 7 10 8 7
1 7 8 6 5 3 3 0 3 3 4 1 2 1 13 5 10 8 6 4 9 8 4 6 5 3 4 5 6 6 7 5 2 1 3 3 4 3 3 3 5 5 6 6 5 6 7 8 8 8 8 8 7 6 7 7 8 8 11 11 11 9 11 8 7 7 10 9 8 9 14 15 15 16 14 13 13 12 13 12 12 11 11 10 8 8 9 11 10 10 9 9 9 8 7 9 10
6 1 5 7 6 4 3 3 4 4 2 5 1 4 4 11 13 4 2 4 8 8 8 6 7 5 5 5 6 6 5 5 5 5 5 4 3 4 5 4 3 5 5 4 5 6 7 9 8 8 8 8 8 8 8 9 9 9 10 11 10 10 11 11 8 8 7 10 11 9 10 11 12 13 14 13 13 12 12 12 11 10 10 9 9 9 10 8 7 6 8 8 7 7 9 9 9
4 3 5 5 4 4 4 2 2 1 3 10 2 2 1 7 11 4 2 7 8 7 8 8 8 6 5 6 7 6 6 6 6 6 5 6 5 3 3 3 4 4 5 6 6 6 6 7 9 9 9 8 8 9 8 8 9 10 10 10 10 10 10 9 8 7 8 9 12 9 11 13 11 10 11 14 13 13 13 12 11 10 10 10 9 8 7 9 10 11 10 9 9 7 6 4 8
1 5 5 6 6 4 4 3 3 1 2 10 3 4 3 9 8 6 1 2 7 9 8 9 9 8 7 7 6 6 5 5 5 6 5 4 4 3 3 3 4 5 5 5 5 5 6 7 9 9 10 9 8 9 9 9 10 10 9 10 12 11 8 8 9 10 10 10 11 9 9 12 12 11 9 12 13 13 13 12 12 12 11 10 8 9 9 9 9 10 11 10 9 8 5 6 8
8 6 7 5 6 3 2 4 2 2 1 9 2 4 1 7 6 8 4 6 7 5 3 4 4 5 6 6 8 8 6 5 5 5 5 4 2 1 1 4 6 5 4 3 5 5 6 7 8 9 10 9 9 10 10 10 9 9 11 12 13 11 11 12 11 11 10 11 12 11 9 10 12 13 11 10 11 12 12 12 12 12 10 10 9 9 9 10 10 10 9 8 8 9 7 6 5
7 2 3 2 1 3 2 3 3 1 7 3 0 2 1 5 9 6 8 3 3 6 5 7 7 8 9 8 7 7 6 6 6 5 3 2 0 1 2 4 4 4 3 5 6 7 7 7 6 8 9 10 9 10 9 9 9 10 11 13 13 12 12 11 13 15 12 13 14 13 10 8 10 10 10 9 9 10 12 10 9 11 10 10 10 9 8 8 8 7 7 8 8 8 6 6 6
4 6 5 4 5 5 3 2 2 5 7 0 0 2 3 13 17 9 8 9 7 7 8 10 11 10 8 8 8 6 5 5 5 4 4 2 2 3 3 4 3 3 4 5 7 7 7 6 6 7 8 7 8 8 9 10 10 10 9 9 11 12 13 14 12 14 13 11 11 11 11 11 11 11 11 11 10 11 12 12 10 10 9 9 9 9 8 8 8 8 8 8 8 9 8 8 7
6 6 6 5 2 3 7 4 2 5 3 1 2 0 5 5 9 15 21 21 13 9 10 7 11 12 12 11 8 6 6 6 6 5 4 4 4 3 2 3 3 3 4 6 6 6 6 5 6 7 8 7 7 8 9 10 11 10 10 11 12 11 13 14 12 12 13 11 11 12 13 12 13 14 14 13 12 10 10 13 11 9 8 9 9 9 9 8 8 8 8 8 8 7 6 7 7
11 3 8 8 7 5 5 5 6 7 5 1 3 1 8 2 5 2 10 8 4 4 7 8 8 9 10 7 6 5 5 5 5 5 5 6 4 2 2 3 1 2 4 6 5 5 5 5 6 8 8 7 8 9 8 10 10 10 10 10 11 12 12 11 11 11 12 12 11 12 11 11 11 11 13 10 11 11 10 12 12 10 9 9 9 9 8 8 8 7 7 8 7 6 7 7 6
3 3 5 3 10 5 6 3 2 1 1 1 2 7 4 8 3 8 7 7 9 5 6 5 7 3 3 5 6 7 7 6 5 5 6 4 3 1 1 2 0 1 5 4 4 3 3 2 2 4 4 4 6 8 7 7 8 8 9 10 10 10 10 9 8 11 11 11 11 12 12 11 9 9 10 12 11 11 10 12 13 11 10 8 9 9 9 8 8 8 7 7 7 4 7 7 6
4 6 7 7 2 4 4 1 1 2 3 10 3 7 9 7 9 8 3 2 8 3 5 4 5 3 4 6 7 6 7 6 6 7 6 4 3 1 1 2 0 1 4 3 2 2 2 1 1 2 3 2 3 5 6 7 6 7 9 10 9 9 10 10 10 11 13 11 11 10 10 10 9 9 11 11 12 10 10 11 13 12 11 9 9 9 9 8 8 7 7 7 7 6 6 7 6
7 4 8 1 2 5 3 4 1 1 5 7 4 8 9 3 10 2 2 2 4 3 5 5 4 3 6 9 7 8 8 8 7 6 5 5 4 4 3 3 2 2 5 3 3 0 1 1 2 2 3 4 3 5 6 6 7 7 7 9 11 10 9 9 9 11 10 11 9 8 8 9 10 9 11 12 11 12 10 9 11 12 11 9 8 8 8 8 8 7 6 6 6 6 6 5 5
3 2 2 5 4 3 2 4 4 1 5 6 4 4 6 8 10 2 6 6 7 8 6 4 7 7 10 8 7 5 5 4 6 6 5 5 5 5 4 4 4 3 3 4 2 0 1 2 3 3 3 2 3 4 4 4 6 6 6 7 9 9 9 9 9 10 10 11 11 9 9 9 9 9 10 13 12 11 10 9 10 11 11 11 9 8 8 8 8 7 6 6 5 6 7 7 6
0 0 1 1 1 1 6 7 3 4 6 2 7 1 7 8 8 10 10 9 9 8 7 11 13 12 11 10 7 7 7 8 8 7 6 6 6 5 5 5 4 4 4 3 1 0 2 2 4 3 3 3 3 3 6 6 6 7 7 7 6 8 9 10 10 11 10 11 11 12 11 11 12 10 10 13 13 13 12 12 9 11 11 11 11 9 9 9 8 8 8 7 6 7 6 7 6
5 1 2 0 0 2 4 0 4 4 5 5 1 9 5 10 7 8 10 10 11 11 13 13 11 11 11 10 9 8 9 8 8 7 7 7 6 6 5 4 4 3 3 2 1 1 2 2 3 2 3 4 4 3 3 5 6 8 8 9 8 8 9 9 10 10 11 10 10 11 12 12 11 10 9 11 13 14 13 12 12 11 11 11 12 11 9 9 9 9 8 8 8 8 8 6 6
7 10 10 12 11 6 4 9 2 1 2 6 4 18 3 6 4 9 12 10 7 9 11 12 11 12 12 10 8 8 8 8 8 8 7 7 6 6 5 4 5 4 4 4 2 2 4 3 3 3 3 3 4 3 4 5 5 7 10 9 9 8 9 9 10 9 10 10 10 10 10 11 13 11 10 11 13 13 12 12 12 12 11 10 11 11 10 9 10 10 9 6 8 9 8 7 7
Wind_Direction
328 327 307 313 302 233 49 5 76 305 66 261 275 307 251 303 199 49 15 342 70 266 210 299 162 79 158 202 179 191 213 159 206 134 211 230 328 83 156 147 145 150 162 166 171 175 170 173 172 175 173 174 171 165 165 165 165 164 163 160 160 164 169 163 164 167 153 153 155 145 148 148 150 147 143 137 137 134 130 128 124 121 130 117 114 110 114 116 118 118 120 121 118 117 119 116 111
315 318 310 312 320 89 272 122 105 340 32 1 264 146 259 294 46 136 167 150 203 217 232 223 294 192 257 199 155 104 17 191 195 214 277 251 303 333 132 162 157 160 164 167 169 170 169 179 171 173 176 176 177 170 164 165 167 166 166 162 162 163 170 165 166 162 161 158 154 150 150 148 151 150 143 140 139 134 131 128 125 118 122 123 115 109 116 122 119 117 121 122 123 124 120 115 116
327 351 357 34 40 89 340 41 292 68 103 271 278 221 331 29 133 218 215 210 222 242 262 355 23 32 14 41 43 174 255 220 170 199 204 308 138 235 180 156 172 162 163 167 168 169 171 180 167 168 180 179 177 177 169 169 169 167 168 165 165 166 170 169 167 165 167 157 155 152 154 149 149 146 146 143 144 138 131 127 124 121 121 120 111 116 120 120 121 120 123 124 125 126 121 119 117
360 198 116 76 45 25 67 25 102 131 180 213 295 293 353 199 208 210 250 256 244 218 34 341 51 260 112 349 197 78 114 270 204 164 160 209 203 183 150 149 169 160 160 167 171 171 172 174 164 167 183 180 180 174 175 171 173 174 165 169 169 170 171 175 168 171 168 161 155 154 156 150 154 146 148 147 143 142 133 129 125 123 121 116 118 121 119 116 118 123 125 125 127 128 125 123 122
360 185 152 94 106 14 101 199 159 108 267 197 186 269 272 236 221 263 275 292 282 163 79 207 70 314 182 152 34 165 233 279 305 230 272 264 208 154 144 134 148 161 170 173 172 172 172 170 167 167 183 181 175 176 172 174 177 176 171 173 174 173 175 168 165 170 176 168 157 154 153 156 152 146 145 145 139 135 131 131 127 128 122 119 118 117 121 123 125 127 129 130 135 128 123 118 114
62 65 331 82 117 171 49 357 295 227 223 151 153 237 234 228 215 216 270 302 267 293 193 128 183 238 310 282 184 160 188 111 214 232 158 235 214 155 153 138 147 166 176 175 175 172 170 172 168 172 182 176 169 178 171 176 180 178 173 174 177 177 173 162 164 170 177 170 166 159 154 157 152 156 141 141 146 139 135 133 133 127 124 126 118 117 125 130 132 131 129 133 132 128 121 118 110
342 36 356 22 3 59 169 173 246 214 275 162 207 203 215 249 245 193 333 7 290 352 11 216 84 41 19 291 330 236 213 191 134 220 161 224 150 140 156 144 148 170 176 174 176 171 171 174 171 177 184 176 174 174 173 178 183 177 176 174 179 175 167 169 167 169 170 173 165 168 163 160 154 159 149 139 144 143 138 135 130 127 126 124 121 121 128 131 130 129 128 131 136 131 126 123 112
34 99 304 98 209 49 239 210 253 164 270 173 203 167 225 232 222 97 274 107 269 86 325 288 165 131 240 330 209 271 320 183 239 201 222 165 153 157 158 150 154 172 175 175 173 173 176 174 175 182 185 183 175 177 173 179 183 179 177 173 175 171 170 174 170 168 170 168 168 171 166 164 157 155 156 146 147 148 138 136 134 132 132 125 120 125 133 130 130 128 130 133 136 131 133 126 104
354 77 354 66 49 22 20 255 254 235 270 336 258 234 248 226 189 137 242 229 321 264 297 269 170 84 257 357 225 277 297 306 311 131 164 168 184 164 165 170 161 172 174 175 176 174 174 179 178 183 187 185 179 179 175 179 184 176 177 176 174 173 175 175 174 169 168 167 172 168 168 166 163 158 155 139 143 147 137 136 138 133 131 125 124 130 131 130 130 132 134 136 135 131 129 124 110
28 83 304 151 128 305 347 296 160 240 194 213 188 235 234 252 236 125 173 321 226 325 263 264 338 226 251 254 293 300 252 232 284 69 278 198 195 157 171 189 172 161 173 176 176 176 177 182 180 185 185 183 184 178 178 177 185 177 179 179 175 173 175 175 175 171 168 170 170 169 169 164 160 156 149 143 149 146 136 139 145 137 135 130 128 134 135 135 138 135 135 136 133 131 134 128 108
7 6 143 73 21 182 217 269 246 307 232 318 295 242 233 239 149 13 167 223 315 203 308 149 271 246 105 259 201 252 286 114 130 201 246 254 201 178 181 197 178 165 169 173 173 175 180 184 184 186 183 188 190 184 175 175 185 181 180 179 176 176 174 176 171 174 170 170 169 167 167 162 156 149 151 146 141 149 140 138 144 137 136 132 132 136 139 137 135 139 139 139 137 139 139 123 105
38 17 360 120 199 169 235 193 281 269 283 348 252 245 222 168 84 191 266 271 315 313 240 73 263 146 261 296 286 273 328 242 196 217 253 280 209 204 186 198 173 172 163 166 170 175 179 183 186 190 187 190 185 187 175 173 185 182 182 179 178 176 172 175 170 175 174 173 166 166 165 161 159 149 150 148 151 154 140 148 144 139 139 139 138 135 143 145 142 140 143 140 140 141 141 113 98
119 114 83 91 237 147 231 265 254 215 293 251 197 235 192 126 189 198 208 227 264 338 305 199 203 100 279 213 251 307 221 231 237 230 248 194 203 199 186 192 217 164 166 165 170 178 179 182 187 191 192 187 180 181 174 181 184 184 181 179 178 179 177 174 168 172 176 173 165 166 163 160 162 155 148 151 149 151 145 148 143 140 137 140 140 134 145 144 142 142 141 141 140 142 141 110 102
110 164 123 241 103 244 188 240 148 165 261 247 230 253 213 157 234 182 138 227 258 210 231 195 93 147 257 329 310 255 234 242 249 247 255 251 185 190 181 179 198 193 180 169 179 177 181 185 185 189 191 186 181 178 177 181 182 183 185 176 180 179 178 173 170 168 178 165 165 163 164 161 160 154 153 150 145 146 150 148 142 142 135 140 136 135 147 144 142 144 143 144 145 144 137 111 108
103 141 87 121 307 33 248 175 228 202 248 192 230 168 284 251 130 136 170 204 263 210 274 216 181 89 255 163 280 232 216 229 227 253 207 293 182 181 193 173 179 188 178 224 192 178 188 185 188 186 187 182 183 177 176 179 181 181 184 179 180 177 175 168 168 166 161 160 171 161 159 155 151 152 147 151 142 146 152 146 144 144 135 139 140 142 145 150 146 142 144 148 149 145 139 114 118
151 82 88 131 262 164 272 210 127 279 260 186 267 136 86 291 199 147 255 172 249 303 122 245 174 207 195 163 223 229 211 209 221 207 124 79 195 234 191 189 185 188 182 179 204 227 192 187 187 188 187 183 181 180 178 175 180 176 177 177 177 176 167 166 162 160 161 164 168 158 153 149 149 149 144 146 142 143 149 146 144 141 139 139 143 145 148 148 148 146 145 148 148 146 137 126 112
49 80 100 45 281 153 259 174 145 241 243 274 283 115 208 256 272 260 68 138 262 250 281 220 202 300 222 204 231 226 199 187 142 123 124 123 147 209 240 235 207 214 210 198 181 189 210 204 188 189 191 186 183 176 177 177 178 173 174 177 176 173 168 163 159 161 161 163 157 146 146 150 144 140 139 145 145 138 141 145 138 139 142 142 142 142 149 146 147 147 145 144 147 140 141 122 98
58 146 122 232 201 158 220 198 186 211 137 247 225 209 151 270 321 281 352 298 250 259 247 276 298 257 249 284 253 189 158 159 166 150 175 178 175 193 211 214 204 213 208 210 202 192 189 207 208 195 194 186 188 178 175 175 177 172 172 176 175 166 164 163 160 160 161 162 154 150 152 148 146 141 142 146 147 143 144 140 133 142 142 143 144 143 144 146 147 148 142 112 94 79 69 55 55
125 133 118 227 190 238 162 209 223 143 256 214 219 308 188 239 148 287 348 277 320 302 260 260 263 277 289 306 179 163 147 169 166 176 178 185 187 194 197 198 215 217 222 212 207 199 193 199 202 202 209 206 190 183 175 177 176 171 171 172 168 166 164 163 165 163 161 157 155 153 150 147 147 139 144 149 154 154 146 139 137 141 141 141 141 144 142 143 146 144 110 99 91 84 72 62 69
232 127 236 242 213 238 219 196 220 206 155 212 265 239 202 247 150 296 229 274 311 259 264 262 244 260 271 277 193 174 165 186 187 184 194 201 196 192 193 204 214 217 222 213 207 202 195 196 192 192 200 195 186 165 191 170 176 171 166 165 166 163 163 166 167 167 164 157 154 153 152 150 145 140 141 147 151 153 147 138 140 145 141 138 140 144 141 141 132 98 94 84 80 77 77 68 77
265 103 201 234 215 154 266 170 210 199 152 214 191 319 318 279 227 143 235 338 261 247 235 221 232 237 234 232 211 186 195 205 215 208 205 214 215 205 195 197 206 216 222 234 221 208 203 198 194 198 197 193 181 184 190 181 174 167 167 165 168 162 163 165 169 168 164 160 155 153 153 148 143 139 140 144 147 143 130 117 113 117 112 109 104 83 81 88 85 84 64 65 71 95 92 64 83
110 214 210 192 114 241 251 210 179 145 192 142 252 322 247 323 289 229 214 229 262 220 228 210 224 226 206 204 217 193 196 202 208 210 210 206 209 218 224 240 251 241 235 232 229 225 210 202 200 198 203 183 185 178 194 184 172 173 170 170 168 164 165 166 170 170 166 161 159 155 149 146 145 141 142 143 143 141 132 126 123 122 120 117 112 111 116 114 104 96 94 76 65 75 85 82 80
228 302 254 228 218 235 255 176 208 143 153 198 290 240 43 118 262 229 203 219 246 178 197 200 210 213 213 194 164 192 206 210 213 213 212 220 229 231 224 217 208 220 222 228 224 224 218 206 204 206 195 188 189 182 187 184 186 180 174 170 168 171 166 166 173 172 168 165 160 157 152 153 150 146 144 146 145 144 135 132 132 130 127 126 126 122 121 124 120 111 108 107 96 89 85 87 93
173 252 316 292 172 208 198 210 160 188 153 213 212 37 243 237 301 154 217 241 242 253 251 231 233 220 195 205 209 206 208 213 222 218 214 216 215 224 214 213 220 225 209 232 230 224 210 207 204 199 212 199 191 189 186 194 185 180 177 169 175 172 167 169 172 172 166 166 162 162 157 155 154 151 150 150 152 147 141 138 136 134 130 128 129 129 126 125 123 120 121 118 106 103 100 97 98
202 263 238 261 226 237 253 248 254 223 235 233 220 260 256 192 231 351 262 255 247 254 249 254 252 261 260 246 242 233 227 229 236 239 247 246 239 240 237 234 232 196 225 236 236 231 221 206 196 208 211 214 218 193 190 187 183 188 174 172 176 172 173 169 168 166 168 168 169 165 161 154 155 153 154 155 151 147 142 141 142 140 135 132 130 131 134 135 130 133 132 131 126 114 111 109 104
206 233 248 288 269 291 276 296 266 254 263 162 218 252 267 229 291 261 252 265 261 256 256 240 236 245 243 245 245 231 226 225 224 227 226 228 230 234 245 228 227 225 226 233 236 239 235 200 197 200 207 215 203 215 200 184 189 186 179 184 178 171 175 167 160 167 171 168 171 170 167 162 161 158 157 154 150 148 144 143 141 144 141 139 135 137 144 137 138 132 130 132 130 126 118 127 114
161 244 241 268 270 301 266 223 251 230 219 161 206 266 277 300 149 283 251 238 274 263 237 242 211 227 235 235 237 231 223 226 217 218 229 228 233 221 239 233 222 229 234 243 238 238 239 215 206 198 199 204 201 195 213 200 191 185 175 183 181 182 170 166 173 173 169 171 172 171 170 169 160 157 154 152 148 146 147 145 145 142 141 145 140 139 143 140 142 145 149 146 138 132 130 134 121
64 247 304 281 296 264 254 262 258 119 275 179 195 261 275 277 128 237 260 160 164 227 276 274 209 229 235 234 233 234 227 235 226 202 225 228 227 221 234 229 233 226 220 236 236 235 241 231 213 199 196 196 199 202 202 212 200 189 186 182 184 182 176 173 172 169 170 172 173 171 171 168 163 159 156 153 150 151 149 148 148 149 146 143 142 140 136 140 138 133 129 130 131 124 127 122 125
259 28 313 290 329 311 273 227 259 167 246 161 163 269 264 175 217 238 242 269 280 264 265 263 247 237 238 239 238 241 230 236 226 218 229 227 220 208 226 226 224 226 221 216 223 223 224 226 213 205 192 195 197 203 206 204 213 211 187 185 178 174 171 173 175 177 173 172 170 171 171 166 165 160 161 155 153 151 148 148 151 152 148 144 142 140 133 128 119 120 116 118 114 114 118 120 111
63 33 214 321 342 306 299 190 31 149 234 148 163 304 223 219 230 248 256 249 237 246 253 246 240 238 239 238 237 242 249 247 240 231 233 233 227 212 221 231 216 214 218 217 224 236 235 233 217 199 195 193 200 203 202 203 202 215 256 188 181 177 178 173 175 179 174 168 169 171 168 169 166 164 159 156 152 149 151 154 152 149 149 141 136 136 132 136 132 132 137 126 132 129 132 141 128
196 233 79 254 349 269 285 147 154 143 218 160 92 228 283 255 254 255 261 211 211 251 250 242 236 236 238 238 237 239 245 228 231 231 233 233 231 221 218 227 212 211 213 224 218 228 229 228 214 201 193 193 196 202 202 204 197 208 199 218 192 180 179 171 173 172 173 172 167 172 169 166 166 164 162 156 154 151 152 153 153 152 148 142 137 144 137 137 139 142 142 129 126 123 130 143 140
354 5 290 328 181 278 290 234 167 161 325 172 123 273 254 273 271 257 253 195 184 232 249 241 234 235 236 239 238 240 244 240 242 243 235 231 222 219 211 221 210 204 208 217 218 218 221 226 207 197 191 194 195 197 201 202 200 199 210 190 207 206 176 176 173 174 171 169 169 169 172 169 167 165 163 159 153 155 155 154 151 147 148 143 141 141 138 140 143 140 146 139 132 136 135 138 137
335 181 270 259 210 266 334 31 226 128 126 285 179 250 312 292 258 311 212 168 187 228 248 243 238 239 241 242 240 241 251 258 251 243 241 227 223 213 211 217 208 207 207 206 209 204 219 225 207 195 193 196 197 199 200 205 204 201 199 178 198 194 200 176 183 168 166 173 172 169 170 169 168 164 162 161 153 153 150 145 146 148 148 144 143 143 144 147 145 141 140 147 142 143 144 144 144
292 32 230 213 203 260 280 299 266 203 161 241 250 234 247 253 272 259 252 144 177 235 249 247 237 238 235 238 240 241 240 243 241 234 233 222 220 212 213 212 209 206 207 206 207 204 209 214 206 200 200 198 198 197 198 200 206 210 198 190 195 197 202 199 173 168 172 172 173 173 169 167 165 163 161 159 155 150 147 149 149 152 147 144 143 147 148 148 146 144 141 139 140 135 146 152 154
216 209 254 288 264 222 245 284 269 124 200 225 267 252 267 269 272 274 262 221 234 250 250 253 252 243 239 236 237 238 239 236 238 230 224 218 219 216 212 214 212 206 202 204 210 216 218 217 232 220 201 200 199 197 200 200 205 209 211 195 194 209 202 200 186 174 176 171 177 174 168 164 162 162 161 160 154 151 147 145 149 153 149 147 146 147 147 151 147 149 144 137 133 146 153 158 151
226 196 213 224 281 255 204 235 268 167 231 240 229 247 268 277 280 281 278 184 221 240 247 249 249 244 243 237 236 236 235 239 237 235 237 232 222 219 225 221 231 225 228 218 219 219 218 220 213 252 248 208 194 197 193 199 195 200 203 205 208 206 208 198 223 185 170 172 171 172 169 166 162 162 161 156 154 154 152 155 153 154 152 150 152 152 158 159 155 147 148 142 135 108 107 134 135
103 121 160 239 227 281 262 241 256 152 294 247 242 256 267 274 276 280 280 274 234 246 250 245 242 238 239 240 236 235 231 233 247 203 192 187 190 198 194 184 187 176 192 206 221 240 242 234 220 228 233 234 193 188 182 191 194 196 204 203 211 202 195 209 189 193 173 174 168 165 159 160 161 158 158 156 154 154 155 155 152 156 156 158 160 164 159 154 151 150 146 145 142 137 137 147 148
195 215 216 268 194 261 265 87 114 255 183 293 290 287 275 270 279 279 283 289 270 256 252 249 244 237 236 231 236 229 231 287 123 108 114 107 107 111 111 122 137 156 189 155 199 223 223 226 232 245 255 238 224 191 193 195 198 199 192 196 191 194 189 185 197 214 191 169 167 165 165 162 162 161 159 156 157 157 153 154 157 160 161 164 161 153 154 153 150 147 144 131 153 149 148 167 162
178 199 218 295 263 248 291 1 50 273 112 269 329 302 283 283 282 281 280 275 268 260 225 239 233 236 231 228 232 226 180 175 145 154 140 121 98 97 110 130 143 159 179 181 203 202 218 227 227 231 237 221 244 226 189 201 199 205 201 191 186 183 231 210 195 178 182 187 166 162 159 161 161 160 160 158 156 157 158 160 164 161 162 153 145 153 156 158 158 155 158 149 143 100 108 167 177
176 128 144 233 220 35 306 292 12 264 187 260 318 302 288 288 280 269 269 258 263 270 236 243 215 227 219 219 212 197 191 165 171 172 160 157 99 77 18 32 240 97 225 252 233 221 236 239 235 221 228 230 223 243 232 205 201 197 201 185 183 176 180 183 142 152 148 190 170 159 159 160 159 159 162 158 157 159 161 161 158 161 160 160 157 158 163 160 158 157 157 156 148 144 149 185 204
241 196 209 249 223 234 189 259 286 236 339 284 284 267 283 292 298 325 308 288 292 299 312 278 254 234 245 223 196 193 184 181 177 179 199 169 159 177 191 205 177 184 219 227 242 246 252 246 233 223 226 225 225 220 227 233 196 191 184 147 152 118 93 161 151 152 166 171 188 160 164 163 160 162 161 159 160 160 160 160 160 161 159 160 158 157 164 168 165 162 159 156 169 158 157 155 207
292 231 206 220 194 189 325 349 6 359 327 320 347 343 286 285 277 261 275 321 307 304 337 263 244 237 200 184 180 175 172 177 162 174 182 191 191 221 243 226 203 216 219 227 221 227 225 238 244 244 238 222 219 222 215 213 212 190 173 155 173 177 170 186 183 174 168 169 189 174 158 163 162 160 159 157 158 159 159 159 158 156 157 159 164 164 157 152 159 161 170 165 163 171 159 148 176
194 268 200 190 137 115 112 359 53 322 265 267 59 101 283 302 286 268 284 321 293 306 285 262 263 225 184 181 176 169 162 172 184 175 170 176 223 217 249 245 234 229 238 231 235 234 233 233 232 229 223 220 214 214 206 200 214 204 189 191 190 191 183 193 199 178 172 169 159 179 163 160 160 156 157 157 157 156 154 155 157 159 158 160 156 152 159 168 169 166 158 164 170 158 157 163 175
236 269 111 116 120 134 167 126 155 239 276 295 78 152 220 307 291 262 333 311 282 296 283 258 246 231 222 196 188 179 184 178 175 191 199 210 211 202 222 237 247 247 259 260 248 242 243 248 242 224 217 217 211 210 207 198 204 203 197 195 195 195 194 183 181 177 170 158 157 174 156 152 156 157 153 155 153 153 150 151 155 154 155 158 157 166 167 162 155 155 166 164 156 171 174 167 171
221 194 110 128 141 161 146 111 157 192 34 289 358 231 305 251 260 294 308 307 303 286 258 245 236 230 221 198 192 194 189 187 173 181 203 209 213 227 227 254 253 267 264 257 257 257 256 257 255 253 237 221 216 212 212 202 198 204 203 193 196 200 192 190 160 153 156 159 156 163 166 151 150 151 154 151 154 153 150 151 151 154 157 161 163 157 157 159 164 162 163 162 172 177 182 167 156
196 138 85 74 71 70 114 101 106 321 68 272 185 192 210 276 273 320 321 219 264 255 252 239 228 221 207 199 206 208 202 195 197 195 197 206 212 215 230 264 284 264 263 271 277 276 268 258 251 241 236 226 219 216 213 209 200 192 206 206 198 195 188 175 160 162 161 160 153 160 166 153 150 149 155 156 154 157 153 150 155 160 161 160 159 159 157 160 163 169 176 176 169 165 168 164 174
124 95 75 33 40 54 27 67 94 60 230 257 213 198 135 299 257 231 163 217 198 226 291 265 260 239 228 210 198 196 198 196 199 212 217 213 214 229 304 280 267 273 272 302 304 283 264 251 244 238 231 221 216 215 207 209 201 192 198 207 198 187 174 168 167 161 159 159 157 156 165 162 154 152 154 158 156 155 151 151 156 159 156 155 153 150 165 170 172 173 171 164 167 168 172 168 162
120 123 131 96 350 8 39 342 39 157 267 260 259 171 210 191 289 265 240 277 212 176 199 210 215 214 208 209 212 208 196 196 204 203 214 207 9 322 259 263 265 277 328 337 314 291 272 258 244 236 231 219 212 211 206 206 202 200 203 200 195 185 169 174 174 162 165 167 163 160 156 157 150 145 148 148 156 158 146 146 148 149 154 155 159 163 163 165 163 162 163 166 169 170 159 160 164
97 95 67 133 259 23 292 37 259 206 217 216 101 170 325 234 241 272 280 251 246 216 207 197 199 206 212 214 212 205 199 201 197 198 194 172 185 230 265 266 271 329 348 321 291 279 269 257 242 231 230 217 208 202 204 205 203 205 194 204 195 180 174 176 175 163 161 162 162 154 154 161 151 148 157 155 158 166 149 144 147 153 156 164 156 150 155 152 154 159 164 165 165 168 171 167 169
139 153 148 110 237 230 250 259 264 307 285 301 161 222 243 279 287 237 245 256 243 220 223 217 192 195 203 208 207 201 205 199 200 190 186 193 201 207 231 260 290 345 345 296 271 277 275 244 232 220 225 211 208 207 205 203 205 202 197 195 193 180 178 173 170 161 157 160 164 162 162 163 166 162 160 164 159 158 156 145 144 149 154 149 147 149 149 153 154 159 162 165 169 168 157 165 171
196 114 156 185 146 162 234 181 216 214 207 218 268 77 235 108 240 267 225 249 287 241 228 212 214 205 198 193 183 191 199 218 201 185 190 198 196 187 221 260 277 12 315 282 273 276 278 254 230 223 220 214 205 206 203 201 199 196 195 191 191 175 172 172 166 157 157 159 163 162 164 162 169 161 159 149 150 152 155 142 141 141 144 147 145 145 148 151 156 152 163 166 160 159 159 158 161
192 162 84 97 233 130 238 205 169 232 304 262 217 215 209 202 270 286 250 263 263 240 236 205 224 195 146 156 182 197 205 207 200 193 202 202 165 168 240 252 79 15 285 282 273 280 278 265 236 220 208 208 199 193 190 189 192 184 177 172 164 167 166 159 153 151 157 158 159 165 164 163 166 153 145 145 150 148 153 144 139 141 143 143 143 146 150 154 157 158 157 159 162 162 158 162 159
188 117 198 207 123 100 85 54 55 81 46 251 166 304 277 299 290 270 330 239 271 212 216 200 206 200 172 192 200 202 207 201 200 198 196 172 137 167 202 240 92 298 265 275 267 270 279 352 5 90 89 89 120 143 149 152 149 158 162 158 150 154 155 147 151 149 151 154 157 160 158 154 145 151 146 146 144 146 150 148 142 142 143 146 146 149 151 150 152 154 157 160 162 165 160 165 157
107 204 234 173 141 112 133 229 348 69 218 272 155 207 265 5 284 346 1 358 272 233 212 209 217 202 204 220 207 202 204 207 204 200 188 165 157 171 197 203 138 242 262 255 263 255 304 48 30 61 91 106 102 110 130 134 128 121 134 147 149 150 144 135 139 141 140 141 147 146 144 144 152 155 150 146 145 143 143 148 140 140 139 140 146 148 147 147 148 150 155 162 161 159 160 151 167
150 193 273 128 210 218 280 87 264 217 258 267 273 247 274 216 250 340 268 216 242 227 210 207 230 222 226 230 226 221 219 211 203 195 181 163 173 188 186 197 156 203 240 243 249 125 49 52 50 60 52 79 101 111 98 106 122 128 131 135 142 141 139 135 136 136 138 143 144 145 148 146 140 149 151 146 147 142 143 145 148 145 143 144 146 148 147 148 149 147 154 159 160 167 166 169 169
108 26 315 300 89 199 132 201 176 121 266 45 289 105 220 216 210 199 235 220 219 206 196 215 216 210 215 225 217 204 206 205 200 196 187 179 180 196 184 181 176 199 223 245 248 142 89 79 79 61 68 75 83 113 123 117 118 114 115 113 110 124 128 131 137 140 144 146 150 150 147 150 157 158 164 154 149 148 149 152 154 149 148 149 151 154 155 152 152 158 161 166 173 173 172 173 165
182 155 261 288 159 227 117 304 151 178 194 200 266 282 233 248 195 177 218 210 208 186 199 210 213 214 218 220 206 200 202 202 201 191 186 177 177 193 190 187 157 186 218 217 177 151 106 90 89 76 101 98 92 86 107 120 121 119 119 122 124 119 125 130 135 142 141 144 148 152 155 155 149 160 168 162 155 152 153 156 155 156 158 162 162 161 164 161 164 168 174 173 168 172 172 169 159
182 180 197 188 149 143 159 254 52 124 143 239 155 264 203 276 175 198 224 215 193 203 192 204 211 210 217 220 215 198 199 209 195 192 183 173 178 186 183 178 153 182 203 198 178 149 118 95 86 85 90 108 113 116 126 123 123 132 128 125 125 130 132 134 135 139 140 144 149 151 151 152 160 158 168 169 158 152 153 155 158 161 164 165 165 165 167 167 173 171 170 166 166 170 171 168 167